When you browse on this site, cookies collect data to enhance your experience and personalize the content and advertising you see.
Visit our Privacy Policy to learn more. By continuing to use the site, you agree to this use of cookies and data.
  • In Österreich
  • Länderverzeichnis
  • Für 7 Tage
  • Wassertemperatur
  • Satellitenkarten
  • Wetterkarte
  • News
  • Widgets
  • user-avatar
    Anmelden

    Stündliche Wetter Costa Mesa

    Heute, 22 April, Montag

    Zeit Temperatur Niederschläge Wind Luftdruck Luftfeuchtigkeit
    00:00 +16°C° 0 mm 3 m/S 758 mmHg 69%
    01:00 +14°C° 0 mm 3 m/S 758 mmHg 70%
    02:00 +14°C° 0 mm 3 m/S 758 mmHg 71%
    03:00 +15°C° 0 mm 2 m/S 758 mmHg 73%
    04:00 +15°C° 0 mm 2 m/S 758 mmHg 74%
    05:00 +15°C° 0 mm 2 m/S 758 mmHg 74%
    06:00 +15°C° 0 mm 2 m/S 758 mmHg 74%
    07:00 +16°C° 0 mm 2 m/S 758 mmHg 73%
    08:00 +17°C° 0 mm 2 m/S 758 mmHg 67%
    09:00 +19°C° 0 mm 2 m/S 759 mmHg 61%
    10:00 +20°C° 0 mm 2 m/S 759 mmHg 54%
    11:00 +21°C° 0 mm 3 m/S 758 mmHg 52%
    12:00 +22°C° 0 mm 3 m/S 758 mmHg 50%
    13:00 +23°C° 0 mm 4 m/S 758 mmHg 48%
    14:00 +23°C° 0 mm 4 m/S 757 mmHg 50%
    15:00 +22°C° 0 mm 4 m/S 757 mmHg 51%
    16:00 +22°C° 0 mm 4 m/S 756 mmHg 53%
    17:00 +21°C° 0 mm 3 m/S 757 mmHg 56%
    18:00 +20°C° 0 mm 3 m/S 757 mmHg 60%
    19:00 +19°C° 0 mm 2 m/S 757 mmHg 63%
    20:00 +19°C° 0 mm 3 m/S 757 mmHg 66%
    21:00 +18°C° 0 mm 3 m/S 758 mmHg 68%
    22:00 +18°C° 0 mm 3 m/S 758 mmHg 70%
    23:00 +18°C° 0 mm 3 m/S 758 mmHg 71%

    Morgen, 23 April, Dienstag

    Zeit Temperatur Niederschläge Wind Luftdruck Luftfeuchtigkeit
    00:00 +18°C° 0 mm 2 m/S 758 mmHg 71%
    01:00 +18°C° 0 mm 2 m/S 758 mmHg 71%
    02:00 +17°C° 0 mm 2 m/S 758 mmHg 72%
    03:00 +17°C° 0 mm 2 m/S 757 mmHg 72%
    04:00 +17°C° 0 mm 2 m/S 757 mmHg 72%
    05:00 +19°C° 0 mm 1 m/S 758 mmHg 69%
    06:00 +20°C° 0 mm 1 m/S 758 mmHg 65%
    07:00 +18°C° 0 mm 0 m/S 758 mmHg 61%
    08:00 +22°C° 0 mm 1 m/S 758 mmHg 54%
    09:00 +24°C° 0 mm 2 m/S 758 mmHg 46%
    10:00 +26°C° 0 mm 2 m/S 758 mmHg 39%
    11:00 +27°C° 0 mm 3 m/S 758 mmHg 37%
    12:00 +28°C° 0 mm 4 m/S 758 mmHg 35%
    13:00 +28°C° 0 mm 4 m/S 757 mmHg 33%
    14:00 +28°C° 0 mm 4 m/S 757 mmHg 34%
    15:00 +27°C° 0 mm 4 m/S 757 mmHg 36%
    16:00 +27°C° 0 mm 4 m/S 756 mmHg 37%
    17:00 +26°C° 0 mm 3 m/S 757 mmHg 40%
    18:00 +25°C° 0 mm 3 m/S 757 mmHg 43%
    19:00 +24°C° 0 mm 2 m/S 757 mmHg 46%
    20:00 +23°C° 0 mm 2 m/S 758 mmHg 48%
    21:00 +23°C° 0 mm 2 m/S 758 mmHg 50%
    22:00 +21°C° 0 mm 2 m/S 758 mmHg 52%
    23:00 +21°C° 0 mm 2 m/S 758 mmHg 53%

    übermorgen, 24 April, Mittwoch

    Zeit Temperatur Niederschläge Wind Luftdruck Luftfeuchtigkeit
    00:00 +20°C° 0 mm 2 m/S 758 mmHg 54%
    01:00 +21°C° 0 mm 1 m/S 758 mmHg 56%
    02:00 +21°C° 0 mm 1 m/S 758 mmHg 56%
    03:00 +20°C° 0 mm 1 m/S 758 mmHg 57%
    04:00 +20°C° 0 mm 1 m/S 758 mmHg 58%
    05:00 +21°C° 0 mm 1 m/S 758 mmHg 56%
    06:00 +21°C° 0 mm 1 m/S 758 mmHg 54%
    07:00 +22°C° 0 mm 1 m/S 759 mmHg 52%
    08:00 +23°C° 0 mm 1 m/S 759 mmHg 47%
    09:00 +25°C° 0 mm 2 m/S 759 mmHg 42%
    10:00 +26°C° 0 mm 2 m/S 759 mmHg 37%
    11:00 +27°C° 0 mm 2 m/S 759 mmHg 35%
    12:00 +28°C° 0 mm 3 m/S 758 mmHg 33%
    13:00 +29°C° 0 mm 3 m/S 758 mmHg 31%
    14:00 +28°C° 0 mm 3 m/S 757 mmHg 32%
    15:00 +28°C° 0 mm 3 m/S 757 mmHg 32%
    16:00 +27°C° 0 mm 3 m/S 756 mmHg 33%
    17:00 +26°C° 0 mm 3 m/S 757 mmHg 37%
    18:00 +25°C° 0 mm 2 m/S 757 mmHg 40%
    19:00 +24°C° 0 mm 2 m/S 757 mmHg 44%
    20:00 +23°C° 0 mm 1 m/S 758 mmHg 46%
    21:00 +23°C° 0 mm 1 m/S 758 mmHg 48%
    22:00 +22°C° 0 mm 1 m/S 758 mmHg 50%
    23:00 +22°C° 0 mm 1 m/S 758 mmHg 52%

    25 April, Donnerstag

    Zeit Temperatur Niederschläge Wind Luftdruck Luftfeuchtigkeit
    00:00 +21°C° 0 mm 1 m/S 758 mmHg 54%
    01:00 +21°C° 0 mm 1 m/S 758 mmHg 55%
    02:00 +21°C° 0 mm 1 m/S 758 mmHg 56%
    03:00 +20°C° 0 mm 1 m/S 758 mmHg 57%
    04:00 +18°C° 0 mm 0 m/S 758 mmHg 59%
    05:00 +21°C° 0 mm 1 m/S 758 mmHg 55%
    06:00 +22°C° 0 mm 1 m/S 758 mmHg 52%
    07:00 +22°C° 0 mm 1 m/S 758 mmHg 48%
    08:00 +24°C° 0 mm 1 m/S 758 mmHg 43%
    09:00 +25°C° 0 mm 2 m/S 758 mmHg 38%
    10:00 +27°C° 0 mm 2 m/S 758 mmHg 33%
    11:00 +27°C° 0 mm 3 m/S 758 mmHg 32%
    12:00 +28°C° 0 mm 3 m/S 758 mmHg 31%
    13:00 +28°C° 0 mm 3 m/S 758 mmHg 30%
    14:00 +28°C° 0 mm 3 m/S 757 mmHg 31%
    15:00 +28°C° 0 mm 3 m/S 757 mmHg 32%
    16:00 +28°C° 0 mm 3 m/S 757 mmHg 33%
    17:00 +27°C° 0 mm 3 m/S 757 mmHg 37%
    18:00 +25°C° 0 mm 2 m/S 758 mmHg 40%
    19:00 +24°C° 0 mm 2 m/S 758 mmHg 44%
    20:00 +23°C° 0 mm 1 m/S 758 mmHg 47%
    21:00 +23°C° 0 mm 1 m/S 758 mmHg 50%
    22:00 +22°C° 0 mm 1 m/S 759 mmHg 54%
    23:00 +22°C° 0 mm 1 m/S 758 mmHg 55%

    26 April, Freitag

    Zeit Temperatur Niederschläge Wind Luftdruck Luftfeuchtigkeit
    00:00 +21°C° 0 mm 1 m/S 758 mmHg 57%
    01:00 +21°C° 0 mm 1 m/S 758 mmHg 58%
    02:00 +21°C° 0 mm 1 m/S 758 mmHg 59%
    03:00 +20°C° 0 mm 1 m/S 758 mmHg 60%
    04:00 +18°C° 0 mm 0 m/S 758 mmHg 61%
    05:00 +20°C° 0 mm 1 m/S 758 mmHg 59%
    06:00 +21°C° 0 mm 1 m/S 758 mmHg 57%
    07:00 +22°C° 0 mm 1 m/S 758 mmHg 54%
    08:00 +23°C° 0 mm 1 m/S 759 mmHg 50%
    09:00 +24°C° 0 mm 2 m/S 759 mmHg 46%
    10:00 +25°C° 0 mm 2 m/S 759 mmHg 41%
    11:00 +26°C° 0 mm 2 m/S 758 mmHg 40%
    12:00 +27°C° 0 mm 3 m/S 758 mmHg 38%
    13:00 +27°C° 0 mm 3 m/S 758 mmHg 37%
    14:00 +27°C° 0 mm 3 m/S 758 mmHg 38%
    15:00 +27°C° 0 mm 4 m/S 757 mmHg 40%
    16:00 +26°C° 0 mm 4 m/S 757 mmHg 41%
    17:00 +25°C° 0 mm 3 m/S 757 mmHg 46%
    18:00 +24°C° 0 mm 3 m/S 758 mmHg 51%
    19:00 +21°C° 0 mm 2 m/S 758 mmHg 56%
    20:00 +21°C° 0 mm 2 m/S 758 mmHg 59%
    21:00 +21°C° 0 mm 1 m/S 759 mmHg 62%
    22:00 +21°C° 0 mm 1 m/S 759 mmHg 65%
    23:00 +20°C° 0 mm 1 m/S 759 mmHg 68%

    27 April, Samstag

    Zeit Temperatur Niederschläge Wind Luftdruck Luftfeuchtigkeit
    00:00 +20°C° 0 mm 1 m/S 758 mmHg 71%
    01:00 +19°C° 0 mm 1 m/S 758 mmHg 73%
    02:00 +19°C° 0 mm 1 m/S 758 mmHg 75%
    03:00 +19°C° 0 mm 1 m/S 758 mmHg 76%
    04:00 +19°C° 0 mm 1 m/S 758 mmHg 78%
    05:00 +19°C° 0 mm 1 m/S 758 mmHg 76%
    06:00 +18°C° 0 mm 2 m/S 758 mmHg 74%
    07:00 +19°C° 0 mm 2 m/S 758 mmHg 72%
    08:00 +20°C° 0 mm 2 m/S 758 mmHg 66%
    09:00 +21°C° 0 mm 2 m/S 758 mmHg 61%
    10:00 +23°C° 0 mm 2 m/S 758 mmHg 55%
    11:00 +24°C° 0 mm 3 m/S 757 mmHg 52%
    12:00 +23°C° 0 mm 4 m/S 757 mmHg 50%
    13:00 +25°C° 0 mm 5 m/S 756 mmHg 47%
    14:00 +23°C° 0 mm 4 m/S 756 mmHg 50%
    15:00 +22°C° 0 mm 4 m/S 756 mmHg 54%
    16:00 +21°C° 0 mm 4 m/S 755 mmHg 58%
    17:00 +20°C° 0 mm 4 m/S 756 mmHg 63%
    18:00 +19°C° 0 mm 4 m/S 756 mmHg 68%
    19:00 +18°C° 0 mm 3 m/S 756 mmHg 74%
    20:00 +18°C° 0 mm 3 m/S 757 mmHg 74%
    21:00 +18°C° 0 mm 2 m/S 757 mmHg 75%
    22:00 +19°C° 0 mm 1 m/S 757 mmHg 76%
    23:00 +17°C° 0 mm 2 m/S 757 mmHg 77%
    Mehr zeigen